unifclothing.com alexa rank chart, unifclothing.com alexa rank daily changes

unifclothing.com alexa rank chart, unifclothing.com alexa rank daily changes

unifclothing.com
Actual rank:
19 809

RANK HISTORY

Date Rank Diff
2017/10/23 19 809 +87
2017/10/22 19 722 +269
2017/10/21 19 453 -108
2017/10/20 19 561 -9
2017/10/19 19 570 +6
2017/10/18 19 564 -709
2017/10/17 20 273 +261
2017/10/16 20 012 -176
2017/10/14 20 188 -39
2017/10/13 20 227 -388
2017/10/12 20 615 -432
2017/10/11 21 047 -509
2017/10/10 21 556 -111
2017/10/09 21 667 -177
2017/10/08 21 844 -59
2017/10/07 21 903 +404
2017/10/06 21 499 -291
2017/10/05 21 790 -354
2017/10/04 22 144 -438
2017/10/03 22 582 +490
2017/10/02 22 092 +152
2017/10/01 21 940 -797
2017/09/30 22 737 -272
2017/09/29 23 009 +217
2017/09/28 22 792 -260
2017/09/27 23 052 -138
2017/09/26 23 190 -141
2017/09/25 23 331 -108
2017/09/24 23 439 -247
2017/09/23 23 686 -531
2017/09/22 24 217 -447
2017/09/20 24 664 -811
2017/09/19 25 475 -109
2017/09/18 25 584 +247
2017/09/17 25 337 -309
2017/09/16 25 646 +10
2017/09/15 25 636 -30
2017/09/14 25 666 +180
2017/09/13 25 486 -661
2017/09/12 26 147 -246
2017/09/11 26 393 +226
2017/09/10 26 167 -186
2017/09/09 26 353 -251
2017/09/08 26 604 -322
2017/09/07 26 926 -353
2017/09/06 27 279 -429
2017/09/05 27 708 -457
2017/09/04 28 165 -153
2017/09/03 28 318 -741
2017/09/02 29 059 -122
2017/09/01 29 181 -179
2017/08/31 29 360 -336
2017/08/30 29 696 -65
2017/08/29 29 761 -771
2017/08/28 30 532 -116
2017/08/27 30 648 +190
2017/08/26 30 458 -363
2017/08/25 30 821 -489
2017/08/24 31 310

WIDGET FOR YOUR SITE

DOMAINS WITH THE NEAREST RANK

Domain Rank
celebitr.com 19 804
narod.hr 19 805
viabcp.com 19 806
ccbchurch.com 19 807
onlinecasinoreports.com 19 808
unifclothing.com 19 809
speedtest.pl 19 810
mangaseeonline.us 19 811
alditalk.de 19 812
modesens.com 19 813
infibeam.com 19 814

DOMAINS WITH THE NEAREST RANK BY TLD .com

Domain Rank
turbofuture.com 19 802
celebitr.com 19 804
viabcp.com 19 806
ccbchurch.com 19 807
onlinecasinoreports.com 19 808
unifclothing.com 19 809
modesens.com 19 813
infibeam.com 19 814
vh1.com 19 815
gwdang.com 19 816
sofmap.com 19 820